Flugplatz Hundheim (UL)

Hier findest Du alle Informationen zum Flugplatz Hundheim (UL).

Informationen für Piloten zum Flugplatz Hundheim

Hier findest Du alle relevanten Informationen, die Du als Pilot benötigst, um Hundheim anzufliegen.

Flugplatz: Hundheim ICAO-Code: UL Flugplatz
Frequenz Turm: 120.975 Mhz GAFOR Gebiet: -
Frequenz Ground: 120.975 Mhz Mogas: nein
Platzrunde: SO 2200 ft Landegebühr: -
Platzhöhe: Sunrise: 05:59 Uhr UTC
Pisten: 04/22 - 400 m x 31 m, GRAS Sunset: 16:30 Uhr UTC

Mitglieder, die in Hundheim fliegen

Flugwetter am Flugplatz Hundheim

Die METAR Information stammen aus EDFH (14.30 km entfernt).

METAR Code:
2020/10/04 06:50
EDFH 040650Z 22015KT 9999 -DZ SCT013 08/07 Q0993

Flugschulen am Flugplatz Hundheim

Am Flugplatz Hundheim gibt es leider keine Flugschule.

Benachbarte Flugplätze und Flugschulen

Es gibt 17 weitere Flugplätze in einem Umkreis von 50 km um den Flugplatz Hundheim.

Jetzt anmelden

Passwort vergessen

Umfrage Archiv

Wären Rettungsgeräte keine Pflicht mehr, würdet Ihr Euer UL trotzdem mit einem ausstatten?

Ja
86.3 %
Nein
13.7 %
Stimmen: 351 | Diskussion
Anzeige: Roland Aircraft
Statistik Alle Mitglieder

Aktuell sind 41 Besucher online.

Anzeige: VFR Sprechfunk Simulator


Anzeige: Pocket FMS